indice_tiempo,remuneracion_media_real_todos_los_trabajos,remuneracion_media_real_ocupados
2012-03-01,2005.0,1946.0
2012-04-01,2003.0,1961.0
2012-05-01,2002.0,1949.0
2012-06-01,2012.0,1953.0
2012-07-01,2024.0,1968.0
2012-08-01,2022.0,1971.0
2012-09-01,2025.0,1968.0
2012-10-01,2021.0,1963.0
2012-11-01,2039.0,1961.0
2012-12-01,2142.0,1960.0
2013-01-01,2163.0,1977.0
2013-02-01,2148.0,1989.0
2013-03-01,2054.0,2003.0
2013-04-01,2068.0,2010.0
2013-05-01,2085.0,2019.0
2013-06-01,2102.0,2037.0
2013-07-01,2104.0,2050.0
2013-08-01,2107.0,2057.0
2013-09-01,2114.0,2057.0
2013-10-01,2112.0,2064.0
2013-11-01,2115.0,2057.0
2013-12-01,2193.0,2045.0
2014-01-01,2224.0,2056.0
2014-02-01,2240.0,2077.0
2014-03-01,2166.0,2101.0
2014-04-01,2156.0,2099.0
2014-05-01,2116.0,2094.0
2014-06-01,2084.0,2062.0
2014-07-01,2085.0,2033.0
2014-08-01,2109.0,2041.0
2014-09-01,2131.0,2063.0
2014-10-01,2120.0,2078.0
2014-11-01,2147.0,2072.0
2014-12-01,2243.0,2083.0
2015-01-01,2262.0,2112.0
2015-02-01,2246.0,2114.0
2015-03-01,2162.0,2114.0
2015-04-01,2147.0,2106.0
2015-05-01,2155.0,2097.0
2015-06-01,2140.0,2101.0
2015-07-01,2125.0,2086.0
2015-08-01,2118.0,2075.0
2015-09-01,2113.0,2072.0
2015-10-01,2111.0,2062.0
2015-11-01,2180.0,2051.0
2015-12-01,2384.0,2044.0
2016-01-01,2394.0,2063.0
2016-02-01,2345.0,2050.0
2016-03-01,2125.0,2063.0
2016-04-01,2120.0,2047.0
2016-05-01,2099.0,2054.0
2016-06-01,2105.0,2033.0
2016-07-01,2124.0,2036.0
2016-08-01,2116.0,2054.0
2016-09-01,2112.0,2051.0
2016-10-01,2109.0,2055.0
2016-11-01,2205.0,2057.0
2016-12-01,2408.0,2079.0
2017-01-01,2427.0,2089.0
2017-02-01,2377.0,2095.0
2017-03-01,2176.0,2110.0
2017-04-01,2160.0,2098.0
2017-05-01,2151.0,2092.0
2017-06-01,2157.0,2088.0
2017-07-01,2163.0,2088.0
2017-08-01,2169.0,2086.0
2017-09-01,2167.0,2090.0
2017-10-01,2166.0,2095.0
2017-11-01,2243.0,2102.0
2017-12-01,2446.0,2103.0
2018-01-01,2468.0,2113.0
2018-02-01,2380.0,2120.0
2018-03-01,,2104.0
